www.pogodaiklimat.ru

Погода и климат >> Архив погоды >> Малайзия >> Kota Kinabalu


ПОГОДА в Kota Kinabalu

  • Прогноз погоды в Kota Kinabalu
  • Монитор погоды в Kota Kinabalu
  • Климат города

АРХИВ ПОГОДЫ в Kota Kinabalu

Время (UTC), дата Ветер
(напр.,м/с)
 
Видим.   Явления Облачность Т
(С)
Тd
(С)
f
(%)
Тe
(С)
Тes
(С)
Комфортность P
(гПа)
Po
(гПа)
Тmin
(С)
Tmax
(С)
R
(мм)
S
(см)
00 14.02 В 2 20 км мгла 8/1 450 м
[Cu Sc Ac lent Ci fib]
+26.7 +20.2 68 +33 +35 очень
душно
1015.0 1014.7 +23.8
03 14.02 С 3 20 км мгла 8/4 450 м
[Cu Sc Ac lent Cs]
+30.6 +20.4 55 +38 +43 очень
душно
1015.5 1015.2
06 14.02 С 4 20 км мгла 8/3 420 м
[Cu Sc Ac lent Cs]
+30.9 +21.9 59 +40 +44 очень
душно
1012.4 1012.1
09 14.02 С 5 18 км мгла 8/5 420 м
[Cu Sc Ac lent Cs]
+29.6 +21.7 63 +38 +38 очень
душно
1011.3 1011.0
12 14.02 С 4 14 км мгла 8/1 420 м
[Cu Sc Ac lent Cs]
+27.6 +19.9 63 +34 +34 очень
душно
1012.5 1012.2 +31.9
15 14.02 СВ 3 14 км мгла 8/1 420 м
[Cu Sc Ac lent Cs]
+26.6 +18.7 62 +32 +32 очень
душно
1014.0 1013.7
18 14.02 В 2 16 км мгла 8/1 420 м
[Cu Sc Ac lent Cs]
+23.9 +19.3 75 +29 +29 душно 1012.7 1012.4
21 14.02 В 3 16 км мгла 8/1 420 м
[Cu Sc Ac lent Cs]
+22.1 +19.3 84 +28 +28 душно 1012.3 1012.0
00 15.02 СВ 1 20 км мгла 8/1 450 м
[Cu Sc Ac lent Ci sp]
+25.4 +19.4 69 +31 +33 очень
душно
1013.2 1012.9 +21.6
03 15.02 З 2 20 км мгла 8/1 450 м
[Cu Sc Ac lent Ci sp]
+31.0 +21.7 58 +39 +50 очень
душно
1013.0 1012.7
06 15.02 С 3 20 км мгла 8/1 450 м
[Cu Sc Ac lent Ci sp]
+32.3 +22.0 55 +41 +48 опасность
перегрева
1009.9 1009.6
09 15.02 С 4 20 км мгла 8/1 450 м
[Cu Sc Ac lent Ci sp]
+30.3 +22.3 62 +39 +40 очень
душно
1009.0 1008.7
12 15.02 СВ 2 15 км мгла 8/1 420 м
[Cu Sc Ac lent Cs]
+28.0 +22.6 73 +37 +37 очень
душно
1010.7 1010.4 +32.3
15 15.02 В 3 15 км мгла 8/3 420 м
[Cu Sc Ac lent Cs]
+25.9 +21.2 75 +33 +33 очень
душно
1012.0 1011.7
18 15.02 В 2 15 км мгла 8/3 420 м
[Cu Sc Ac lent Cs]
+24.3 +21.8 86 +31 +31 очень
душно
1011.2 1010.9
21 15.02 В 1 15 км мгла 8/3 420 м
[Cu Sc Ac lent Cs]
+23.3 +21.1 87 +31 +31 очень
душно
1011.3 1011.0
00 16.02 ЮВ 2 20 км мгла 8/3 420 м
[Cu Sc Ac lent Cs]
+26.3 +21.6 75 +34 +35 очень
душно
1012.8 1012.5 +22.8
03 16.02 СЗ 2 20 км мгла 8/3 420 м
[Cu Sc Ac lent Ci sp]
+31.2 +24.0 66 +43 +52 опасность
перегрева
1013.4 1013.1
06 16.02 СЗ 2 20 км мгла 8/1 420 м
[Cu Sc Ac lent Ci sp]
+31.7 +24.1 64 +44 +52 опасность
перегрева
1010.4 1010.1
09 16.02 С 3 20 км мгла 8/1 420 м
[Cu Sc Ac lent Ci sp]
+28.9 +23.6 73 +39 +40 очень
душно
1009.4 1009.1
12 16.02 СВ 3 12 км мгла 8/3 420 м
[Cu Sc Ac lent Cs]
+27.8 +23.3 77 +38 +38 очень
душно
1011.0 1010.7 +32.5
15 16.02 С 1 12 км мгла 8/3 420 м
[Cu Sc Ac lent Cs]
+27.6 +23.8 80 +38 +38 очень
душно
1012.0 1011.7
18 16.02 В 2 12 км мгла 8/3 420 м
[Cu Sc Ac lent Cs]
+26.4 +23.3 83 +36 +36 очень
душно
1010.8 1010.5
21 16.02 В 2 15 км мгла 8/3 420 м
[Cu Sc Ac lent Cs]
+25.5 +22.2 82 +33 +33 очень
душно
1010.3 1010.0
00 17.02 ЮВ 2 24 км мгла 8/1 420 м
[Cu Sc Ac lent Ci sp]
+26.6 +23.0 81 +36 +38 очень
душно
1012.3 1012.0 +25.1
03 17.02 З 2 24 км мгла 8/1 420 м
[Cu Sc Ac lent Ci sp]
+31.8 +25.1 68 +46 +56 опасность
перегрева
1012.8 1012.5
06 17.02 СЗ 1 17 км осадки на расстоянии 8/4 420 м
[Cb cap Ac lent Cs]
+30.1 +23.5 68 +41 +48 опасность
перегрева
1010.6 1010.3
09 17.02 ЮВ 5 12 км гроза, ливневой дождь 10/5 400 м
[Cb cap Ac lent Cs]
+25.2 +22.8 87 +33 +34 очень
душно
1010.7 1010.4
12 17.02 В 3 18 км в посл. час дождь {гроза} 8/4 420 м
[Cu Sc Ac lent Cs]
+25.1 +23.2 89 +34 +34 очень
душно
1012.0 1011.7 +31.8 0.4
15 17.02 В 2 18 км 8/3 420 м
[Cu Sc Ac lent Cs]
+25.3 +23.0 87 +34 +34 очень
душно
1012.6 1012.3
18 17.02 ЮВ 3 18 км 8/3 420 м
[Cu Sc Ac lent Cs]
+24.6 +22.7 89 +32 +32 очень
душно
1011.3 1011.0
21 17.02 В 2 18 км 8/3 420 м
[Cu Sc Ac lent Cs]
+24.5 +22.6 89 +32 +32 очень
душно
1011.1 1010.8
00 18.02 В 2 28 км 8/1 450 м
[Cu Sc Ac lent Cs]
+26.4 +22.5 79 +35 +37 очень
душно
1012.4 1012.1 +24.3 0.4
03 18.02 З 1 28 км 8/3 450 м
[Cu Sc Ac lent Cs]
+30.6 +23.9 67 +42 +51 опасность
перегрева
1013.1 1012.8
06 18.02 З 2 13 км осадки на расстоянии 8/4 450 м
[Cb cap Ac lent Cs]
+31.9 +23.6 62 +43 +50 опасность
перегрева
1010.3 1010.0
09 18.02 В 4 5000 м гроза, ливневой дождь 10/4 400 м
[Cb cap Ac lent Cs]
+25.1 +23.9 93 +34 +35 очень
душно
1010.3 1010.0
12 18.02 ЮВ 2 12 км слабый ливневой дождь, в посл. час гроза 10/5 400 м
[Cu Sc Ac lent Cs]
+24.7 +23.6 94 +34 +34 очень
душно
1012.4 1012.1 +32.6 29
15 18.02 В 1 18 км {дождь} 8/3 420 м
[Cu Sc Ac lent Cs]
+24.8 +23.5 92 +33 +33 очень
душно
1013.1 1012.8
18 18.02 В 2 18 км {дождь} 8/1 420 м
[Cu Sc Ac lent Ci sp]
+24.3 +23.2 94 +33 +33 очень
душно
1011.2 1010.9
21 18.02 ЮВ 2 18 км 8/1 420 м
[Cu Sc Ac trans Ci sp]
+23.7 +22.6 94 +31 +31 очень
душно
1010.3 1010.0
00 19.02 В 2 25 км 8/1 420 м
[Cu Sc Ac lent Ci sp]
+26.3 +23.4 84 +36 +38 очень
душно
1011.7 1011.4 +23.5 29
03 19.02 З 1 25 км 9/1 420 м
[Cu Sc Ac lent Ci sp]
+30.3 +24.7 72 +43 +54 опасность
перегрева
1011.1 1010.8
06 19.02 СЗ 4 25 км 8/4 420 м
[Cb cap Ac lent Ci sp]
+30.6 +25.5 74 +45 +49 опасность
перегрева
1008.8 1008.5
09 19.02 В 2 9000 м гроза, ливневой дождь 10/5 400 м
[Cb cap Ac lent Cs]
+27.4 +25.4 89 +40 +41 очень
душно
1008.7 1008.4
12 19.02 В 1 16 км гроза, ливневой дождь 8/4 420 м
[Cb cap Ac lent Cs]
+25.9 +24.3 91 +36 +36 очень
душно
1009.0 1008.7 +30.9 5
15 19.02 ЮВ 2 18 км 8/3 420 м
[Cu Sc Ac lent Cs]
+25.5 +23.9 91 +35 +35 очень
душно
1009.9 1009.6
18 19.02 В 3 18 км 8/3 420 м
[Cu Sc Ac lent Cs]
+24.6 +22.6 89 +32 +32 очень
душно
1009.0 1008.7
21 19.02 В 1 18 км 8/1 420 м
[Cu Sc Ac lent Cs]
+24.2 +22.7 91 +32 +32 очень
душно
1009.3 1009.0
00 20.02 В 3 28 км 8/1 450 м
[Cu Sc Ac trans Ci sp]
+26.8 +23.3 81 +36 +38 очень
душно
1010.7 1010.4 +24.1 5
03 20.02 СЗ 2 28 км 8/1 450 м
[Cu Sc Ac trans Ci sp]
+30.4 +25.3 74 +44 +54 опасность
перегрева
1010.9 1010.6
06 20.02 СЗ 3 26 км 9/6 420 м
[Cb cap Ac lent Ci sp]
+30.7 +25.8 75 +46 +49 опасность
перегрева
1008.3 1008.0
09 20.02 В 3 26 км гроза без осадков 8/6 420 м
[Cb cap Ac lent Cs]
+28.3 +25.0 82 +41 +41 опасность
перегрева
1008.1 1007.8
12 20.02 В 2 18 км {гроза} 8/4 420 м
[Cu Sc Ac lent Cs]
+27.2 +24.5 85 +38 +38 очень
душно
1008.5 1008.2 +31.1
15 20.02 ЮВ 2 18 км 8/4 420 м
[Cu Sc Ac lent Cs]
+26.1 +23.9 88 +36 +36 очень
душно
1010.7 1010.4
18 20.02 В 3 18 км 8/3 420 м
[Cu Sc Ac lent Cs]
+25.3 +22.9 87 +34 +34 очень
душно
1008.6 1008.3
21 20.02 В 2 18 км 9/3 420 м
[Cu Sc Ac lent Cs]
+24.4 +22.4 89 +32 +32 очень
душно
1008.8 1008.5

 

Местоположение метеостанции Kota Kinabalu (Малайзия): широта 5.93 долгота 116.05 высота над уровнем моря 3 м.

В архиве по умолчанию представлена погода в Kota Kinabalu за последнюю неделю. Архивные данные за месяц целиком и за предыдущие месяцы, начиная с января 2011 года, Вы можете получить, выбрав интересующий диапазон дат из раскрывающегося списка и нажав кнопку "Ввод!".

Внимание! Время в таблицах - всемирное. Для получения местного времени необходимо прибавить поправку, которая в Kota Kinabalu равна 8 ч.

Смотрите также архив погоды в соседних городах и на ближайших метеорологических станциях:

Погода в Labuan (Малайзия) (113 км)
Погода в Brunei Airport (Бруней) (167 км)
Погода в Sandakan (Малайзия) (222 км)
Погода в Longbawan (Индонезия) (248 км)
Погода в Tawau (Малайзия) (274 км)
Погода в Miri (Малайзия) (290 км)
Погода в Tarakan (Индонезия) (334 км)
Погода в Tanjung Selor (Индонезия) (371 км)
Погода в Tanjung Redep (Индонезия) (451 км)
Погода в Bintulu (Малайзия) (452 км)

Пояснения к столбцам:

Ветер - указаны скорость ветра в м/с - средняя за 10 мин, порывы в срок и между сроками (в фигурных скобках) и направление, откуда дует ветер: С - северный, СВ - северо-восточный, В - восточный, ЮВ - юго-восточный, Ю - южный, ЮЗ - юго-западный, З - западный, СЗ - северо-западный.
Видимость - горизонтальная дальность видимости в метрах или километрах. При видимости от 1 до 10 км при отсутствии осадков обычно наблюдается дымка, при ухудшении видимости до 1 км и менее - туман. В сухую погоду видимость может ухудшаться дымом, пылью или мглою.
Явления - указаны атмосферные явления, наблюдавшиеся в срок или в последний час перед сроком; фигурными скобками обозначены явления, наблюдавшиеся между сроками (за 1-3 часа до срока); квадратными скобками обозначены град или гололедные отложения с указанием их диаметра в мм.
Облачность - указаны через наклонную черту общая и нижняя облачность в баллах и высота нижней границы облаков в метрах; квадратными скобками обозначены формы облаков: Ci - перистые, Cs - перисто-слоистые, Cc - перисто-кучевые, Ac - высококучевые, As - высокослоистые, Sc - слоисто-кучевые, Ns - слоисто-дождевые, Cu - кучевые, Cb - кучево-дождевые. Подробнее классификацию облаков см. в Атласе облаков (PDF).
T - Температура воздуха - температура, измеренная на высоте 2 м над землей.
Td - Температура точки росы - температура, при понижении до которой содержащийся в воздухе водяной пар достигнет насыщения.
f - Относительная влажность воздуха - влажноcть воздуха, измеренная на высоте 2 м над землей.
Te - Эффективная температура - температура, которую ощущает одетый по сезону человек в тени. Характеристика душности погоды. При расчете учитывается влияние влажности воздуха и скорости ветра на теплоощущения человека.
Tes - Эффективная температура на солнце - температура, которую ощущает человек, с поправкой на солнечный нагрев. Характеристика знойности погоды. Зависит от высоты солнца над горизонтом, облачности и скорости ветра. Ночью, в пасмурную погоду, а также при ветре 12 м/с и более поправка равна нулю.
P - Атмосферное давление - приведенное к уровню моря атмосферное давление.
Po - Атмосферное давление - измеренное на уровне метеостанции атмосферное давление.
Tmin - Минимальная температура - минимум температуры воздуха на высоте 2 м над землей.
Tmax - Максимальная температура - максимум температуры воздуха на высоте 2 м над землей.
R - Количество осадков - Количество выпавших осадков, мм. При наведении курсора мыши на число - период времени, за который выпало указанное количество осадков.
S - Снежный покров - Высота снежного покрова, см. При наведении курсора мыши на число - состояние снежного покрова и степень покрытия местности в баллах.